Printer-friendly version
Follow the MPC on Twitter Follow the MPC on Facebook The MPC blog
Minor Planet Center

MPEC 2008-V57 : 2001 XQ = 2008 VV4

The following Minor Planet Electronic Circular may be linked-to from your own Web pages, but must not otherwise be redistributed electronically.

A form allowing access to any MPEC is at the bottom of this page.


Read MPEC 2008-V56 Read MPEC 2008-V58


M.P.E.C. 2008-V57                                Issued 2008 Nov. 12, 03:47 UT

     The Minor Planet Electronic Circulars contain information on unusual
         minor planets and routine data on comets.  They are published
   on behalf of Commission 20 of the International Astronomical Union by the
          Minor Planet Center, Smithsonian Astrophysical Observatory,
                          Cambridge, MA 02138, U.S.A.

             Prepared using the Tamkin Foundation Computer Network

                              MPC@CFA.HARVARD.EDU
          URL http://www.cfa.harvard.edu/iau/mpc.html  ISSN 1523-6714

                              2001 XQ = 2008 VV4

                           Revision to MPEC 2001-X24

Orbital elements:
2001 XQ = 2008 VV4                                       Earth MOID = 0.0604 AU
Id. P. Birtwhistle
Epoch 2008 Nov. 30.0 TT = JDT 2454800.5                 MPC
M   0.17612              (2000.0)            P               Q
n   0.14167813     Peri.  190.10879     +0.16796398     -0.87224750
a   3.6441885      Node   251.43070     +0.93490475     +0.28871354
e   0.7146525      Incl.   28.98254     +0.31263589     -0.39475155
P   6.96           H   19.3           G   0.15           U   0
Residuals in seconds of arc
011206 704  0.9-  1.2+    011208 157  0.4+  0.3+    011219 829  0.1+  0.1-
011206 704  0.5-  1.2+    011208 157  0.6-  0.6-    011219 829  0.1+  0.3-
011206 704  0.4-  0.9+    011208 157  0.6-  0.0     011219 422  0.1+  0.2+
011207 704  0.5+  0.1-    011209 198  0.1-  0.3+    011219 422  0.1+  0.2+
011207 704  0.2-  0.3+    011209 198  0.4+  0.5+    011219 422  0.1+  0.1+
011207 704  0.1-  0.3+    011209 198  0.5+  0.2+    011220 829  0.0   0.1-
011207 704  0.2+  0.1+    011209 118  0.0   0.3+    011220 829  0.1+  0.3-
011207 704  0.2-  0.9+    011209 118  0.2-  0.7+    011220 829  0.0   0.2-
011207 704  0.3+  0.7+    011209 118  0.1+  0.3+    011221 829  0.2-  0.4+
011207 704  0.7-  1.2+    011209 198  0.6+  1.1+    011221 829  0.1-  0.1+
011207 704  0.4+  0.3+    011209 611  0.3+  0.2-    011230 413  0.0   0.3+
011207 704  0.5+  1.3+    011209 611  0.7-  0.2-    011230 413  0.1-  0.0
011207 704  0.4+  1.6+    011209 611  0.4-  0.2+    011230 413  0.0   0.0
011207 704  0.2+  0.8+    011210 739  0.8-  0.5-    011231 413  0.3+  0.1+
011207 704  0.2+  0.4+    011210 739  0.5+  0.1-    011231 413  0.0   0.0
011207 704  0.3-  0.1-    011210 739  0.8-  0.6+    011231 413  0.0   0.0
011207 704  0.3-  0.6-    011210 670  0.3+  0.0     020101 413  0.0   0.1+
011207 704  0.3-  0.5-    011210 670  0.2-  0.2-    020101 413  0.1-  0.2+
011207 704  0.1+  1.5-    011210 670  0.4-  0.3+    020101 413  0.1+  0.2+
011207 704  0.3-  0.9-    011210 587  0.2-  0.6+    020102 428  0.0   0.8-
011207 704  0.2-  0.7-    011210 587  0.3-  0.0     020102 428  0.0   0.2+
011207 704  0.7-  0.0     011210 587  0.3-  0.1-    020102 428  0.3-  0.1-
011207 704  0.4-  0.4-    011211 670  0.3-  0.0     020104 413  0.0   0.4+
011207 704  0.2-  0.2-    011211 670  0.3-  0.1+    020104 413  0.6-  0.6-
011207 704  0.1+  0.1-    011211 670  0.1+  0.0     020104 413  0.2-  0.2+
011207 704  0.6+  0.0     011211 670  0.1-  0.3-    020111 413  0.0   0.2+
011207 946  1.0+  1.5-    011211 422  0.0   0.1-    020111 413  0.1-  0.2+
011207 946  0.8+  1.1-    011211 422  0.0   0.1+    020111 413  0.1+  0.1+
011207 946  0.7+  0.8-    011211 422  0.1+  0.1+    020209 413  0.1+  0.3+
011207 946  0.8+  0.3-    011211 422  0.0   0.0     020209 413  0.0   0.1+
011207 176  0.1-  1.0-    011211 422  0.0   0.1-    020209 413  0.1+  0.1+
011207 176  0.0   0.7-    011211 422  0.1+  0.0     081107 703  1.8+  0.2+
011207 176  0.1-  0.5-    011211 422  0.0   0.1-    081107 703  0.5-  0.6+
011207 176  0.0   0.4-    011213 670  0.4+  0.0     081107 703  0.4+  0.9+
011207 118  0.4+  0.7+    011213 670  1.3+  1.7-    081107 703  0.2-  1.9+
011207 611  0.1+  0.4+    011213 670  0.7+  0.6+    081107 H01  0.3-  0.6+
011207 118  0.0   0.9+    011213 428  0.0   0.7-    081107 H01  0.1+  0.1+
011207 118  0.1+  0.6+    011213 428  0.5+  0.3-    081107 H01  0.4+  0.1+
011207 118  0.2+  0.2+    011213 428  0.5+  0.1-    081107 H01  0.0   0.1+
011207 611  0.3+  0.1-    011213 428  0.9+  0.5-    081107 J95  0.1-  0.3-
011207 611  0.4+  0.7-    011216 428  0.3-  0.2+    081107 J95  0.4+  0.7-
011208 739  0.8-  1.5-    011216 428  0.1-  0.2-    081107 J95  0.1+  0.3-
011208 739  0.3+  1.7-    011216 428  0.2-  0.2+    081112 J95  0.6-  0.5-
011208 739  1.5-  0.7-    011216 428  0.1+  0.1-    081112 J95  0.2-  0.6+
011208 118  0.4-  0.1-    011217 428  0.7-  0.2+    081112 J95  0.4+  0.3+
011208 118  0.1-  0.3+    011217 428  0.3-  0.2+    081112 J95  0.5-  0.2+
011208 118  0.1-  0.5+    011219 829  0.1+  0.0     081112 J95  0.5-  0.3-

Ephemeris:
2001 XQ                  a,e,i = 3.64, 0.71, 29                  q = 1.0399
Date    TT    R. A. (2000) Decl.     Delta      r     Elong.  Phase     V
2008 11 10    09 04.08   +42 19.9    0.267    1.073   101.0    64.9    18.9
2008 11 20    09 31.83   +15 45.6    0.239    1.047    97.7    69.2    18.7
2008 11 30    09 48.74   -10 48.4    0.264    1.040    94.3    71.0    19.0
2008 12 10    09 59.00   -29 33.6    0.327    1.052    92.7    69.2    19.4
2008 12 20    10 04.16   -41 18.8    0.404    1.083    93.0    65.2    19.8
2008 12 30    10 04.27   -48 42.4    0.483    1.130    94.6    60.2    20.1
2009 01 09    09 59.22   -53 17.7    0.558    1.190    97.2    55.1    20.4
2009 01 19    09 49.67   -55 49.8    0.628    1.260   100.6    50.1    20.7
2009 01 29    09 37.28   -56 38.5    0.692    1.339   104.6    45.4    20.9
2009 02 08    09 24.89   -55 55.7    0.753    1.423   109.0    41.0    21.1
2009 02 18    09 15.17   -53 55.6    0.814    1.511   113.5    36.9    21.2
2009 02 28    09 09.67   -50 55.2    0.879    1.601   117.6    33.3    21.4
2009 03 10    09 08.85   -47 14.6    0.952    1.692   120.9    30.2    21.6
2009 03 20    09 12.18   -43 14.6    1.035    1.784   122.9    27.9    21.9

Gareth V. Williams           (C) Copyright 2008 MPC           M.P.E.C. 2008-V57

Read MPEC 2008-V56 Read MPEC 2008-V58


MPEC number:

Enter an MPEC number in one of the following forms:

  • 1997-B01 (the full form)
  • J97B01 (the packed version of the full form)
  • B01 (the abbreviated form)

Valid HTML 4.01!